Weather History for KMKC - October, 2012

Change the Weather History Date:

Sunday, October 14, 2012

  Actual Average Record
Temperature  
Mean Temperature 62 °F -  
Max Temperature 69 °F 66 °F 82 °F (2005)
Min Temperature 54 °F 46 °F 34 °F (2006)
Degree Days  
Heating Degree Days 3    
Growing Degree Days 12 (Base 50)    
Moisture  
Dew Point 51 °F    
Average Humidity 68    
Maximum Humidity 88    
Minimum Humidity 36    
Precipitation  
Precipitation 0.02 in - - ()
Sea Level Pressure  
Sea Level Pressure 29.76 in    
Wind  
Wind Speed 12 mph (WNW)    
Max Wind Speed 22 mph    
Max Gust Speed 34 mph    
Visibility 10 miles    
Events Rain , Thunderstorm    
Averages and records for this station are not official NWS values.
T = Trace of Precipitation, MM = Missing Value Source: NWS Daily Summary

Daily Weather History Graph

Daily Weather History Graph

Search for Another Location

Airport or City:

Trip Planner

Search our weather history database for the weather conditions in past years. The results will help you decide how hot, cold, wet, or windy it might be!

Date:

Astronomy

Oct. 14, 2012 Rise Set
Actual Time 7:27 AM CDT 6:40 PM CDT
Civil Twilight 7:00 AM CDT 7:07 PM CDT
Nautical Twilight 6:29 AM CDT 7:38 PM CDT
Astronomical Twilight 5:58 AM CDT 8:09 PM CDT
Moon 6:27 AM CDT (10/14) 6:00 PM CDT (10/14)
Length of Visible Light 12h 06m
Length of Day
11h 12m
Waning Crescent, 1% of the Moon is Illuminated
Oct 14
Waning Crescent
Oct 15
New
Oct 21
First Quarter
Oct 29
Full
Nov 6
Last Quarter

Hourly Weather History & Observations

Time (CDT) Temp. Dew Point Humidity Pressure Visibility Wind Dir Wind Speed Gust Speed Precip Events Conditions
12:54 AM 66.0 °F 61.0 °F 84% 29.61 in 10.0 mi South 11.5 mph 18.4 mph N/A   Overcast
1:54 AM 64.9 °F 61.0 °F 87% 29.57 in 10.0 mi South 10.4 mph 17.3 mph N/A   Mostly Cloudy
2:36 AM 64.4 °F 60.8 °F 88% 29.58 in 10.0 mi South 12.7 mph - N/A   Scattered Clouds
2:54 AM 64.9 °F 61.0 °F 87% 29.56 in 10.0 mi South 13.8 mph - N/A   Partly Cloudy
3:22 AM 64.4 °F 60.8 °F 88% 29.56 in 10.0 mi South 10.4 mph - N/A   Mostly Cloudy
3:54 AM 64.9 °F 61.0 °F 87% 29.55 in 10.0 mi SSW 6.9 mph - N/A   Overcast
4:54 AM 64.9 °F 61.0 °F 87% 29.54 in 10.0 mi SSW 9.2 mph - N/A   Overcast
5:30 AM 64.4 °F 60.8 °F 88% 29.58 in 10.0 mi WSW 10.4 mph - N/A   Overcast
5:54 AM 64.0 °F 57.9 °F 80% 29.60 in 10.0 mi WNW 19.6 mph 33.4 mph 0.01 in Thunderstorm Mostly Cloudy
6:03 AM 62.6 °F 57.2 °F 82% 29.62 in 10.0 mi WNW 13.8 mph 27.6 mph N/A   Mostly Cloudy
6:16 AM 62.6 °F 57.2 °F 82% 29.61 in 10.0 mi NNW 15.0 mph 24.2 mph 0.00 in Rain Light Rain
6:54 AM 61.0 °F 53.1 °F 75% 29.60 in 10.0 mi NNW 21.9 mph 34.5 mph 0.01 in   Overcast
7:54 AM 61.0 °F 54.0 °F 78% 29.67 in 10.0 mi NNW 11.5 mph 23.0 mph 0.00 in   Clear
8:54 AM 61.0 °F 51.1 °F 70% 29.71 in 10.0 mi NW 17.3 mph 25.3 mph N/A   Mostly Cloudy
9:46 AM 60.8 °F 53.6 °F 77% 29.77 in 10.0 mi WNW 15.0 mph 23.0 mph N/A   Mostly Cloudy
9:54 AM 60.1 °F 53.1 °F 78% 29.77 in 10.0 mi WNW 15.0 mph 24.2 mph N/A   Mostly Cloudy
10:54 AM 62.1 °F 52.0 °F 70% 29.81 in 9.0 mi NW 13.8 mph 25.3 mph N/A   Mostly Cloudy
11:03 AM 62.6 °F 51.8 °F 68% 29.82 in 10.0 mi NW 17.3 mph 33.4 mph N/A   Scattered Clouds
11:54 AM 64.9 °F 50.0 °F 58% 29.83 in 10.0 mi NW 18.4 mph 23.0 mph N/A   Clear
12:54 PM 66.9 °F 45.0 °F 45% 29.87 in 10.0 mi NW 18.4 mph 26.5 mph N/A   Clear
1:54 PM 66.9 °F 43.0 °F 42% 29.88 in 10.0 mi NW 17.3 mph 21.9 mph N/A   Clear
2:54 PM 68.0 °F 42.1 °F 39% 29.90 in 10.0 mi NW 16.1 mph 27.6 mph N/A   Clear
3:54 PM 69.1 °F 42.1 °F 38% 29.91 in 10.0 mi NW 13.8 mph 20.7 mph N/A   Clear
4:54 PM 68.0 °F 39.9 °F 36% 29.93 in 10.0 mi NW 10.4 mph - N/A   Clear
5:54 PM 66.9 °F 39.9 °F 37% 29.94 in 10.0 mi WNW 12.7 mph 18.4 mph N/A   Clear
6:54 PM 64.0 °F 41.0 °F 43% 29.95 in 10.0 mi WNW 3.5 mph - N/A   Clear
7:54 PM 63.0 °F 41.0 °F 45% 29.96 in 10.0 mi WSW 3.5 mph - N/A   Clear
8:54 PM 59.0 °F 43.0 °F 55% 29.99 in 10.0 mi Calm Calm - N/A   Clear
9:54 PM 55.9 °F 46.0 °F 69% 29.99 in 10.0 mi Calm Calm - N/A   Clear
10:54 PM 55.0 °F 46.9 °F 74% 29.99 in 10.0 mi Calm Calm - N/A   Partly Cloudy
11:54 PM 54.0 °F 46.9 °F 77% 29.99 in 10.0 mi Calm Calm - N/A   Mostly Cloudy